[Date Prev][Date Next][Thread Prev][Thread Next] - [Date Index][Thread Index][Author Index]

2 Line ISS Keps 12-21



ISS
1 25544U 98067A   03355.18384259  .00012193  00000-0  12338-3 0  9172
2 25544  51.6284 156.3423 0005700 275.5793  69.8274 15.65731069290237


----
Via the sarex mailing list at AMSAT.ORG courtesy of AMSAT-NA.
To unsubscribe, send "unsubscribe sarex" to Majordomo@amsat.org



AMSAT Top AMSAT Home